Tekamah, NE

1:24 PM CDT on July 22, 2017 (GMT -0500)
Tekamah

Weather History for KTQE - February, 2013

Change the Weather History Date:

Monday, February 25, 2013

  Actual Average Record
Temperature  
Mean Temperature 28 °F -  
Max Temperature 32 °F 40 °F 68 °F (1981)
Min Temperature 24 °F 20 °F -6 °F (1993)
Degree Days  
Heating Degree Days 37    
Moisture  
Dew Point 24 °F    
Average Humidity 86    
Maximum Humidity 96    
Minimum Humidity 79    
Precipitation  
Precipitation 0.00 in - - ()
Sea Level Pressure  
Sea Level Pressure 30.05 in    
Wind  
Wind Speed 10 mph (North)    
Max Wind Speed 15 mph    
Max Gust Speed -    
Visibility 2 miles    
Events Fog , Snow    
Averages and records for this station are not official NWS values.
T = Trace of Precipitation, MM = Missing Value Source: NWS Daily Summary

Daily Weather History Graph

Daily Weather History Graph

Search for Another Location

Airport or City:

Trip Planner

Search our weather history database for the weather conditions in past years. The results will help you decide how hot, cold, wet, or windy it might be!

Date:

Astronomy

Feb. 25, 2013 Rise Set
Actual Time 7:05 AM CST 6:10 PM CST
Civil Twilight 6:37 AM CST 6:38 PM CST
Nautical Twilight 6:05 AM CST 7:11 PM CST
Astronomical Twilight 5:32 AM CST 7:43 PM CST
Moon 6:26 PM CST (2/25) 6:35 AM CST (2/25)
Length of Visible Light 12h 01m
Length of Day
11h 05m
Full, 100% of the Moon is Illuminated
Feb 25
Full
Feb 25
Full
Mar 4
Last Quarter
Mar 11
New
Mar 19
First Quarter

Hourly Weather History & Observations

Time (CST) Temp. Windchill Dew Point Humidity Pressure Visibility Wind Dir Wind Speed Gust Speed Precip Events Conditions
12:54 AM 26.1 °F 16.8 °F 21.9 °F 84% 30.10 in 2.0 mi NNW 9.2 mph - N/A   Overcast
1:10 AM 26.6 °F 18.2 °F 21.2 °F 80% 30.08 in 1.2 mi NNW 8.1 mph - 0.00 in Snow Light Snow
1:24 AM 26.6 °F 20.0 °F 23.0 °F 86% 30.08 in 1.0 mi North 5.8 mph - 0.00 in Snow Light Snow
1:54 AM 26.1 °F 19.4 °F 23.0 °F 88% 30.12 in 1.0 mi NNW 5.8 mph - 0.00 in Snow Light Snow
2:54 AM 26.1 °F 16.2 °F 23.0 °F 88% 30.10 in 1.2 mi NNW 10.4 mph - 0.00 in Snow Light Snow
3:13 AM 26.6 °F 19.1 °F 23.0 °F 86% 30.06 in 1.0 mi North 6.9 mph - 0.00 in Snow Light Snow
3:54 AM 26.1 °F - 23.0 °F 88% 30.12 in 1.5 mi Calm Calm - 0.00 in   Overcast
4:54 AM 25.0 °F 13.6 °F 21.9 °F 88% 30.09 in 1.2 mi North 12.7 mph - N/A   Overcast
5:16 AM 24.8 °F 14.6 °F 21.2 °F 86% 30.08 in 0.8 mi NNW 10.4 mph - N/A   Overcast
5:22 AM 24.8 °F 16.1 °F 23.0 °F 93% 30.09 in 1.0 mi NNW 8.1 mph - N/A   Overcast
5:33 AM 24.8 °F 16.1 °F 21.2 °F 86% 30.09 in 0.8 mi North 8.1 mph - N/A   Overcast
5:41 AM 24.8 °F 16.9 °F 21.2 °F 86% 30.08 in 0.8 mi North 6.9 mph - N/A   Overcast
5:54 AM 24.1 °F 14.4 °F 21.9 °F 91% 30.10 in 0.8 mi North 9.2 mph - N/A   Overcast
6:11 AM 24.8 °F 14.6 °F 21.2 °F 86% 30.08 in 0.8 mi NNW 10.4 mph - N/A   Overcast
6:54 AM 25.0 °F 13.6 °F 21.9 °F 88% 30.11 in 0.8 mi North 12.7 mph - N/A   Overcast
7:05 AM 24.8 °F 13.4 °F 21.2 °F 86% 30.07 in 1.0 mi North 12.7 mph - N/A   Overcast
7:15 AM 24.8 °F 12.9 °F 21.2 °F 86% 30.07 in 0.5 mi North 13.8 mph - N/A Fog Light Freezing Fog
7:54 AM 24.1 °F 13.1 °F 21.9 °F 91% 30.12 in 0.2 mi North 11.5 mph - N/A Fog Light Freezing Fog
8:54 AM 24.1 °F 13.7 °F 21.9 °F 91% 30.13 in 0.2 mi North 10.4 mph - N/A Fog Light Freezing Fog
9:54 AM 24.1 °F 12.5 °F 23.0 °F 96% 30.12 in 0.2 mi North 12.7 mph - N/A Fog Light Freezing Fog
10:54 AM 26.1 °F 15.0 °F 23.0 °F 88% 30.13 in 0.5 mi North 12.7 mph - N/A Fog Light Freezing Fog
11:54 AM 26.1 °F 16.2 °F 24.1 °F 92% 30.12 in 0.8 mi North 10.4 mph - N/A   Overcast
12:30 PM 26.6 °F 17.5 °F 24.8 °F 93% 30.07 in 1.0 mi NNE 9.2 mph - N/A   Overcast
12:54 PM 28.0 °F 18.6 °F 24.1 °F 85% 30.08 in 1.0 mi North 10.4 mph - N/A   Overcast
1:52 PM 30.2 °F 21.3 °F 26.6 °F 86% 30.03 in 1.2 mi North 10.4 mph - N/A   Scattered Clouds
1:54 PM 30.0 °F 20.5 °F 26.1 °F 85% 30.05 in 1.2 mi North 11.5 mph - N/A   Partly Cloudy
2:54 PM 30.9 °F 21.2 °F 26.1 °F 82% 30.05 in 1.8 mi North 12.7 mph - N/A   Haze
3:54 PM 32.0 °F 22.5 °F 26.1 °F 79% 30.04 in 1.8 mi North 12.7 mph - N/A   Haze
4:07 PM 32.0 °F 23.0 °F 26.6 °F 80% 30.01 in 2.0 mi North 11.5 mph - N/A   Haze
4:43 PM 30.2 °F 19.8 °F 26.6 °F 86% 30.00 in 2.0 mi North 13.8 mph - N/A   Haze
4:54 PM 30.9 °F 21.2 °F 26.1 °F 82% 30.03 in 2.0 mi North 12.7 mph - N/A   Haze
5:06 PM 30.2 °F 20.8 °F 26.6 °F 86% 30.01 in 2.0 mi North 11.5 mph - N/A   Haze
5:54 PM 30.9 °F 21.2 °F 26.1 °F 82% 30.03 in 2.0 mi North 12.7 mph - N/A   Haze
6:32 PM 30.2 °F 21.3 °F 24.8 °F 80% 29.99 in 3.0 mi North 10.4 mph - N/A   Haze
6:54 PM 28.9 °F 19.8 °F 25.0 °F 85% 30.02 in 3.0 mi North 10.4 mph - N/A   Overcast
8:54 PM 28.9 °F 18.2 °F 25.0 °F 85% 29.98 in 4.0 mi NNE 13.8 mph - N/A   Overcast
9:21 PM 28.4 °F 18.0 °F 24.8 °F 86% 29.95 in 4.0 mi NNE 12.7 mph - N/A   Overcast
9:54 PM 28.0 °F 17.0 °F 24.1 °F 85% 29.98 in 3.0 mi NE 13.8 mph - N/A   Overcast
10:33 PM 26.6 °F 14.7 °F 23.0 °F 86% 29.96 in 2.5 mi NE 15.0 mph - N/A   Overcast
10:40 PM 26.6 °F 15.2 °F 23.0 °F 86% 29.95 in 2.0 mi NNE 13.8 mph - N/A   Overcast
10:54 PM 26.1 °F 15.0 °F 23.0 °F 88% 29.99 in 1.8 mi North 12.7 mph - N/A   Overcast
11:45 PM 26.6 °F 17.5 °F 23.0 °F 86% 29.98 in 2.0 mi NNE 9.2 mph - N/A   Overcast
11:54 PM 26.1 °F 17.6 °F 23.0 °F 88% 30.00 in 2.0 mi NE 8.1 mph - N/A   Overcast